Brasilia, Brazil

6:57 PM -03 on June 27, 2017 (GMT -0300)
Pres Juscelino Kubitschek International

Weather History for SBBR - August, 2013

Change the Weather History Date:

Saturday, August 17, 2013

  Actual Average Record
Temperature  
Mean Temperature 70 °F -  
Max Temperature 82 °F 82 °F 84 °F (2001)
Min Temperature 59 °F 57 °F 50 °F (1997)
Cooling Degree Days 6    
Growing Degree Days 20 (Base 50)    
Moisture  
Dew Point 53 °F    
Average Humidity 56    
Maximum Humidity 82    
Minimum Humidity 23    
Precipitation  
Precipitation 0.00 in - - ()
Sea Level Pressure  
Sea Level Pressure 30.15 in    
Wind  
Wind Speed 5 mph ()    
Max Wind Speed 13 mph    
Max Gust Speed -    
Visibility 7.2 miles    
Events      
Averages and records for this station are not official NWS values.
T = Trace of Precipitation, MM = Missing Value Source: Averaged Metar Reports

Daily Weather History Graph

Daily Weather History Graph

Search for Another Location

Airport or City:

Trip Planner

Search our weather history database for the weather conditions in past years. The results will help you decide how hot, cold, wet, or windy it might be!

Date:

Astronomy

Aug. 17, 2013 Rise Set
Actual Time 6:27 AM -03 6:03 PM -03
Civil Twilight 6:05 AM -03 6:26 PM -03
Nautical Twilight 5:40 AM -03 6:51 PM -03
Astronomical Twilight 5:14 AM -03 7:16 PM -03
Moon 2:42 PM -03 (8/17) 2:57 AM -03 (8/17)
Length of Visible Light 12h 20m
Length of Day
11h 36m
Waxing Gibbous, 84% of the Moon is Illuminated
Aug 17
Waxing Gibbous
Aug 20
Full
Aug 28
Last Quarter
Sep 5
New
Sep 12
First Quarter

Hourly Weather History & Observations

Time (-03) Temp. Dew Point Humidity Pressure Visibility Wind Dir Wind Speed Gust Speed Precip Events Conditions
12:00 AM 62.6 °F 53.6 °F 72% 30.18 in 6.2 mi SSE 2.3 mph - N/A   Partly Cloudy
1:00 AM 60.8 °F 55.4 °F 82% 30.15 in - South 4.6 mph - N/A   Clear
2:00 AM 60.8 °F 53.6 °F 77% 30.12 in - SSW 3.5 mph - N/A   Clear
3:00 AM 59 °F 54 °F 77%  in 12 mi South 3.5 mph - -  
3:00 AM 59.0 °F 53.6 °F 82% 30.12 in - South 3.5 mph - N/A   Clear
4:00 AM 59.0 °F 53.6 °F 82% 30.12 in 6.2 mi South 2.3 mph - N/A   Partly Cloudy
5:00 AM 59.0 °F 53.6 °F 82% 30.15 in 6.2 mi Calm Calm - N/A   Scattered Clouds
6:00 AM 59.0 °F 53.6 °F 82% 30.15 in 6.2 mi ESE 3.5 mph - N/A   Partly Cloudy
7:00 AM 64.4 °F 53.6 °F 68% 30.18 in 6.2 mi SSW 4.6 mph - N/A   Scattered Clouds
8:00 AM 68.0 °F 53.6 °F 60% 30.21 in 6.2 mi East 9.2 mph - N/A   Scattered Clouds
9:00 AM 67 °F 53 °F 52%  in 12 mi ENE 12.7 mph - -   Scattered Clouds
9:00 AM 68.0 °F 53.6 °F 60% 30.21 in 6.2 mi ENE 12.7 mph - N/A   Scattered Clouds
10:00 AM 71.6 °F 53.6 °F 53% 30.24 in - NE 11.5 mph - N/A   Clear
11:00 AM 75.2 °F 53.6 °F 47% 30.21 in - ENE 10.4 mph - N/A   Clear
12:00 PM 78.8 °F 53.6 °F 42% 30.18 in 6.2 mi NE 12.7 mph - N/A   Partly Cloudy
1:00 PM 80.6 °F 51.8 °F 37% 30.15 in 6.2 mi NE 9.2 mph - N/A   Scattered Clouds
2:00 PM 82.4 °F 50.0 °F 32% 30.12 in 6.2 mi NE 11.5 mph - N/A   Scattered Clouds
3:00 PM 80 °F 49 °F 23%  in 12 mi ENE 11.5 mph - -   Mostly Cloudy
3:00 PM 80.6 °F 48.2 °F 32% 30.09 in 6.2 mi ENE 11.5 mph - N/A   Mostly Cloudy
4:00 PM 80.6 °F 50.0 °F 34% 30.09 in 6.2 mi East 10.4 mph - N/A   Scattered Clouds
5:00 PM 80.6 °F 50.0 °F 34% - 6.2 mi ESE 9.2 mph - N/A   Scattered Clouds
6:00 PM 77.0 °F 53.6 °F 44% - 6.2 mi NE 5.8 mph - N/A   Mostly Cloudy
7:00 PM 75.2 °F 53.6 °F 47% 30.12 in 6.2 mi NNW 4.6 mph - N/A   Mostly Cloudy
8:00 PM 75.2 °F 53.6 °F 47% 30.15 in 6.2 mi ENE 5.8 mph - N/A   Mostly Cloudy
9:00 PM 73 °F 56 °F 44%  in 12 mi East 3.5 mph - -   Scattered Clouds
9:00 PM 73.4 °F 55.4 °F 53% 30.15 in 6.2 mi East 3.5 mph - N/A   Mostly Cloudy
10:00 PM 71.6 °F 51.8 °F 50% 30.15 in 6.2 mi SSE 8.1 mph - N/A   Mostly Cloudy
11:00 PM 64.4 °F 53.6 °F 68% 30.15 in 6.2 mi East 6.9 mph - N/A   Mostly Cloudy